Location: Batang Balui
(2.7000°N, 113.7833°E)
Time: 02:01:11
(UTC+00:00)

FO-29 - Pass Details

Date: 03 April 2023
Orbit: 799 x 1322 km, 98.5° (Epoch: 29 May)

Event Time Altitude Azimuth Distance (km) Brightness Sun altitude
Rises 21:49:51 0° 352° (N) 3,931 12.7 -9.3°
Reaches altitude 10° 21:52:55 10° 342° (NNW) 2,889 11.9 -8.5°
Maximum altitude 21:58:15 28° 286° (WNW) 1,762 10.4 -7.2°
Drops below altitude 10° 22:03:08 10° 229° (SW) 2,608 11.3 -6.0°
Sets 22:05:46 0° 217° (SW) 3,484 12.0 -5.3°
